Weather History for Sivas, Turkey

Change the Weather History Date:

Tuesday, January 1, 2013

  Actual Average Record
Temperature  
Mean Temperature 24 °F -  
Max Temperature 34 °F 33 °F - ()
Min Temperature 14 °F 19 °F - ()
Degree Days  
Heating Degree Days 41    
Moisture  
Dew Point 10 °F    
Average Humidity 71    
Maximum Humidity 97    
Minimum Humidity 27    
Precipitation  
Precipitation 0.00 in 0.05 in - ()
Sea Level Pressure  
Sea Level Pressure 30.14 in    
Wind  
Wind Speed 7 mph ()    
Max Wind Speed 13 mph    
Max Gust Speed -    
Visibility 3.3 miles    
Events Fog    
T = Trace of Precipitation, MM = Missing Value Source: Averaged Metar Reports

Daily Weather History Graph

Daily Weather History Graph

Search for Another Location

Airport:

Trip Planner

Search our weather history database for the weather conditions in past years. The results will help you decide how hot, cold, wet, or windy it might be!

Date:

Astronomy

Jan. 01, 2013 Rise Set
Actual Time 6:53 AM EET 4:18 PM EET
Civil Twilight 6:23 AM EET 4:48 PM EET
Nautical Twilight 5:49 AM EET 5:22 PM EET
Astronomical Twilight 5:16 AM EET 5:55 PM EET
Moon 8:27 PM EET (1/1) 8:55 AM EET (1/1)
Length of Visible Light 10h 25m
Length of Day
9h 24m
Waning Gibbous, 85% of the Moon is Illuminated
Jan 1
Waning Gibbous
Jan 5
Last Quarter
Jan 11
New
Jan 19
First Quarter
Jan 27
Full

Hourly Weather History & Observations

Time (EET) Temp. Windchill Dew Point Humidity Pressure Visibility Wind Dir Wind Speed Gust Speed Precip Events Conditions
12:50 AM 10.4 °F -4.8 °F 6.8 °F 85% 30.12 in - ESE 12.7 mph - N/A   Clear
1:50 AM 10.4 °F -3.3 °F 5.0 °F 79% 30.12 in - ESE 10.4 mph - N/A   Clear
2:00 AM 17 °F - 17 °F 97%  in 0 mi Calm Calm - - Fog Partial Fog
2:50 AM 14.0 °F 2.0 °F 6.8 °F 73% 30.12 in - SE 9.2 mph - N/A   Clear
3:50 AM 14.0 °F 3.9 °F 3.2 °F 62% 30.12 in - SE 6.9 mph - N/A   Clear
4:50 AM 10.4 °F -2.4 °F 1.4 °F 67% 30.12 in - ESE 9.2 mph - N/A   Clear
5:50 AM 14.0 °F 2.0 °F 6.8 °F 73% 30.09 in - ESE 9.2 mph - N/A   Clear
6:50 AM 15.8 °F 5.1 °F 6.8 °F 68% 30.12 in - ESE 8.1 mph - N/A   Clear
7:50 AM 14.0 °F 2.9 °F 6.8 °F 73% 30.12 in - ESE 8.1 mph - N/A   Clear
8:00 AM 18 °F - 15 °F 84%  in 1 mi SSE 1.2 mph - - Fog Partial Fog
8:50 AM 15.8 °F 3.4 °F 8.6 °F 73% 30.12 in - ESE 10.4 mph - N/A   Clear
9:50 AM 19.4 °F 9.5 °F 12.2 °F 74% 30.12 in - ESE 8.1 mph - N/A   Clear
10:50 AM 23.0 °F 18.4 °F 14.0 °F 68% 30.12 in - ESE 3.5 mph - N/A   Clear
11:50 AM 24.8 °F 20.5 °F 14.0 °F 64% 30.12 in - SSE 3.5 mph - N/A   Clear
12:50 PM 23.0 °F 15.8 °F 15.8 °F 74% 30.09 in - ESE 5.8 mph - N/A   Clear
1:50 PM 24.8 °F 16.9 °F 15.8 °F 69% 30.09 in - SE 6.9 mph - N/A   Clear
2:00 PM 34 °F - 12 °F 27% 30.36 in - ENE 1.2 mph - -  
2:50 PM 24.8 °F 17.9 °F 14.0 °F 64% 30.12 in - ENE 5.8 mph - N/A   Clear
3:50 PM 19.4 °F 11.5 °F 10.4 °F 68% 30.12 in - ESE 5.8 mph - N/A   Clear
4:50 PM 19.4 °F 10.4 °F 10.4 °F 68% 30.12 in - SE 6.9 mph - N/A   Clear
5:50 PM 17.6 °F 8.2 °F 10.4 °F 73% 30.15 in - East 6.9 mph - N/A   Clear
6:50 PM 15.8 °F 4.2 °F 8.6 °F 73% 30.15 in - East 9.2 mph - N/A   Clear
7:50 PM 17.6 °F 5.7 °F 10.4 °F 73% 30.15 in - ESE 10.4 mph - N/A   Clear
8:00 PM 26 °F - 16 °F 53%  in 9 mi Calm Calm - -  
8:50 PM 15.8 °F 2.7 °F 10.4 °F 79% 30.15 in - ESE 11.5 mph - N/A   Clear
9:50 PM 14.0 °F 0.5 °F 8.6 °F 79% 30.15 in - East 11.5 mph - N/A   Clear
10:50 PM 14.0 °F 0.5 °F 8.6 °F 79% 30.18 in - ESE 11.5 mph - N/A   Clear
11:50 PM 15.8 °F 2.7 °F 8.6 °F 73% 30.18 in - ESE 11.5 mph - N/A   Clear